Location: ????????
(56.0167°N, 38.0333°E)
Time: 13:57:09
(UTC+00:00)

Cosmos 1805 Rocket - Pass Details

Date: 19 May 2025
Orbit: 600 x 623 km, 82.5° (Epoch: 20 June)

Event Time Altitude Azimuth Distance (km) Brightness Sun altitude
Rises 21:23:33 0° 343° (NNW) 2,922 8.6 -14.0°
Reaches altitude 10° 21:25:54 10° 336° (NNW) 2,009 7.3 -14.0°
Maximum altitude 21:30:02 39° 268° (W) 934 4.4 -14.0°
Enters shadow 21:32:41 20° 209° (SSW) 1,466 5.0 -14.0°
